Location: Bremen
(53.0796°N, 8.8241°E)
Time: 19:38:28
(UTC+01:00)

ISS - Pass Details

Date: 16 November 2017
Orbit: 402 x 407 km, 51.6° (Epoch: 22 November)

Event Time Altitude Azimuth Distance (km) Brightness Sun altitude
Exits shadow 05:38:09 16° 188° (S) 1,165 -1.6 -19.6°
Drops below altitude 10° 05:39:20 10° 169° (S) 1,451 -0.8 -19.4°
Sets 05:41:49 0° 149° (SSE) 2,306 0.5 -19.0°
